Retour au catalogue

FIREFLY-2

ActifScienceSSO
NORAD 62704·PAYLOAD·🇮🇳 India

Lancé Jan 14, 2025 depuis Vandenberg Space Force Base

Loading…

Prochains Passages (prochaines 24 heures)

TLE

FraisSource: Space-Track

Époque: Sep 14, 2026, 15:01 UTC

1 62704U 25009CZ  26257.62579815  .00000961  00000-0  98475-4 0  9993
2 62704  97.6961 333.6066 0007812 131.6247 228.5643 14.92702334 90664

Suivez FIREFLY-2 en temps réel avec AllMySat

Download on the App Store